Powrót do katalogu

STARLINK-5401

AktywnyŁącznośćVLEO
NORAD 54870·PAYLOAD·🇺🇸 United States

Wystrzelony Dec 28, 2022 z Cape Canaveral Space Force Station

Loading…

Następne Przeloty (najbliższe 24 godziny)

TLE

ŚwieżeSource: CelesTrak SupGP

Epoka: Sep 15, 2026, 03:02 UTC

1 54870C 22177BC  26258.12687500  .00058509  00000+0  21189-2 0  2582
2 54870  43.0025 131.3942 0001645 271.2771 196.2846 15.27552836    17

Śledź STARLINK-5401 w czasie rzeczywistym z AllMySat

Download on the App Store